Weather in Gondar

Ethiopia     12°36′39″N   37°28′02″E
temp.,
°C
wind,
m/s
gust,
m/s
humid.,
%
clouds,
%
prec.,
mm/h
press.,
hPa
HPBL,
m
6 march, sat
sat600:00+18nne444265 0.0 101463
03:00+17ne445132 0.0 101254
06:00+15ene44730 0.0 101387
09:00+22ene57404 0.0 1013567
12:00+27e642380 0.0 10112107
15:00+30e551739 0.0 10072891
18:00+25w232561 0.0 1007132
21:00+23ene222473 0.0 101033
7 march, sun
sun700:00+18ene443757 0.0 101262
03:00+17ene444346 0.0 101054
06:00+15ene3449100 0.0 101145
09:00+22e343082 0.0 1012431
12:00+28se231981 0.0 10102800
15:00+28wnw752064 0.0 10052966
18:00+26sw3423100 0.0 10061092
21:00+20nne233070 0.0 100926
8 march, mon
mon800:00+19n343022 0.0 101057
03:00+17ne333411 0.0 100924
06:00+15ene333864 0.0 101029
09:00+23e232335 0.0 1011524
12:00+30w231432 0.0 10093122
15:00+30wnw431433 0.0 10043574
18:00+27nnw6618100 0.0 10053233
21:00+21nnw492981 0.0 1009204
9 march, tue
tue900:00+19n483461 0.0 1011167
03:00+17ne344032 0.0 100940
06:00+16ne233917 0.0 101023
09:00+23e322131 0.0 1012523
12:00+29sse22150 0.0 10103157
15:00+30wnw541615 0.0 10053419
18:00+27ssw332095 0.0 10061783
21:00+21n332973 0.0 101028
10 march, wed
wed1000:00+19n453166 0.0 101169
03:00+17ne333633 0.0 101029
06:00+16ene333763 0.0 101125
09:00+23e332281 0.0 1012561
12:00+29ese33151 0.0 10103168
15:00+29wnw331519 0.0 10063603
18:00+27sse121974 0.0 10062072
21:00+23nw232487 0.0 101047